Terminal Aerodrome Forecast
Issued by NWS Des Moines, IA

Home | Current Version | Previous Version | Text Only | Print | Product List | Glossary On
Versions: 1 2 3 4 5 6 7 8 9 10 11 12 13 14 15 16 17 18 19 20 21 22 23 24 25 26 27 28 29 30 31 32 33 34 35 36 37 38 39 40 41 42 43 44 45 46 47 48 49 50
000
FTUS43 KDMX 260520
TAFALO
TAF
KALO 260520Z 2606/2706 14008KT P6SM BKN070
     FM260900 11010KT P6SM SCT012 OVC040
     FM261400 08010KT 3SM -SN OVC015
     FM262000 01008KT 2SM -SN OVC012
     FM270100 32010KT P6SM OVC025
     FM270500 32012G20KT P6SM BKN030=

USA.gov is the U.S. government's official web portal to all federal, state and local government web resources and services.